Overview Statistics Trail Chart Weather Telemetry Raw packets
 

This is the latest recevied weather packets stored in our database for station/object W5GMO. If no packets are shown the sender has not sent any weather packets the latest 10 day(s).

<< 3 4 5 6 7 8 9 >>
Time Temp. Humidity Pressure Rain* Wind** Luminosity Snow
1788615764 26.11° C 1% 1012.1 hPa 0 mm - 460 W/m² -
1788615459 26.11° C 1% 1012.2 hPa 0 mm - 278 W/m² -
1788615155 26.11° C 1% 1012.3 hPa 0 mm - 246 W/m² -
1788614853 26.11° C 1% 1012.3 hPa 0 mm - 241 W/m² -
1788614549 25.56° C 1% 1012.3 hPa 0 mm - 270 W/m² -
1788614244 25.56° C 1% 1012.3 hPa 0 mm - 376 W/m² -
1788613939 25.56° C 1% 1012.3 hPa 0 mm - 147 W/m² -
1788613634 25.56° C 1% 1012.3 hPa 0 mm - 117 W/m² -
1788613333 25° C 1% 1012.5 hPa 0 mm - 126 W/m² -
1788613028 25° C 1% 1012.2 hPa 0 mm - 125 W/m² -
1788612723 25° C 1% 1012.1 hPa 0 mm - 138 W/m² -
1788612432 25° C 1% 1012.1 hPa 0 mm - 85 W/m² -
1788612115 25.56° C 1% 1012.1 hPa 0 mm - 111 W/m² -
1788611810 25.56° C 1% 1012.1 hPa 0 mm - 167 W/m² -
1788611508 25.56° C 1% 1012 hPa 0 mm - 170 W/m² -
1788611207 25.56° C 1% 1012.1 hPa 0 mm - 226 W/m² -
1788610902 25.56° C 1% 1011.9 hPa 0 mm - 158 W/m² -
1788610596 25° C 1% 1012 hPa 0 mm - 178 W/m² -
1788610292 24.44° C 1% 1012 hPa 0 mm - 160 W/m² -
1788609991 24.44° C 1% 1012.3 hPa 0 mm - 124 W/m² -
1788609686 24.44° C 1% 1012.3 hPa 0 mm - 106 W/m² -
1788609386 24.44° C 1% 1012 hPa 0 mm - 80 W/m² -
1788609080 24.44° C 1% 1011.8 hPa 0 mm - 80 W/m² -
1788608780 24.44° C 1% 1012.1 hPa 0 mm - 104 W/m² -
1788608479 24.44° C 1% 1011.9 hPa 0 mm - 100 W/m² -

* Rain latest hour (hover to see other rain measurements)
** Current wind speed in m/s (hover to see current wind gust speed)